FW4307 Weather Reports


time (UTC)temp
F
wind
direction
speed
knots
gust
knots
rain 1hr
in
rain 24hr
in
rain mn
in
humidity
%
barometer
mb
20260506193040 68 255 5.2 8.7 0.00 0.03 0.01 85 1021.5
20260506192540 67 277 5.2 9.6 0.00 0.03 0.01 84 1021.5
20260506192040 67 157 4.3 9.6 0.00 0.03 0.01 83 1021.5
20260506191540 67 202 4.3 8.7 0.00 0.03 0.01 83 1021.6
20260506191039 68 275 1.7 4.3 0.00 0.03 0.01 83 1021.5
20260506190539 68 202 2.6 4.3 0.00 0.03 0.01 83 1021.6
20260506190046 67 268 0.9 7.0 0.00 0.03 0.01 84 1021.7
20260506185536 67 217 2.6 7.0 0.00 0.04 0.01 84 1021.6
20260506185036 67 245 1.7 5.2 0.00 0.04 0.01 84 1021.6
20260506184543 67 206 0.0 5.2 0.00 0.04 0.01 83 1021.7
20260506184035 67 175 2.6 5.2 0.00 0.04 0.01 84 1021.7
20260506183535 66 203 0.0 3.5 0.00 0.04 0.01 83 1021.7
20260506183035 66 232 0.0 4.3 0.00 0.04 0.01 83 1021.7
20260506182534 66 211 1.7 4.3 0.00 0.04 0.01 84 1021.7
20260506182034 65 143 0.0 3.5 0.00 0.04 0.01 83 1021.7
20260506181534 65 238 0.0 5.2 0.00 0.04 0.01 83 1021.7
20260506181034 65 181 0.9 5.2 0.00 0.04 0.01 83 1021.7
20260506180533 66 232 2.6 5.2 0.00 0.04 0.01 82 1021.7
20260506180035 66 183 0.0 2.6 0.00 0.04 0.01 82 1021.7
20260506175532 66 183 0.0 4.3 0.00 0.05 0.01 81 1021.6
20260506175032 67 199 1.7 4.3 0.00 0.05 0.01 82 1021.6
20260506174532 66 46 0.0 3.5 0.00 0.05 0.01 81 1021.5
20260506174031 66 336 1.7 4.3 0.00 0.05 0.01 81 1021.6
20260506173530 66 263 0.9 3.5 0.00 0.05 0.01 84 1021.7
20260506173036 65 121 0.0 2.6 0.00 0.05 0.01 85 1021.7
20260506172527 64 328 0.0 4.3 0.00 0.05 0.01 86 1021.6
20260506172026 63 272 1.7 4.3 0.00 0.05 0.01 86 1021.7
20260506171525 63 296 1.7 3.5 0.00 0.05 0.01 86 1021.7
20260506171025 63 292 0.0 3.5 0.00 0.05 0.01 86 1021.7
20260506170526 62 243 0.9 4.3 0.00 0.05 0.01 86 1021.8
20260506170023 62 279 0.9 5.2 0.00 0.05 0.01 87 1021.8
20260506165522 62 236 1.7 5.2 0.00 0.05 0.01 87 1021.8
20260506165022 62 215 0.9 4.3 0.00 0.05 0.01 87 1021.8
20260506164522 61 266 0.0 4.3 0.00 0.05 0.01 86 1021.9
20260506164022 62 227 0.9 7.0 0.00 0.05 0.01 86 1021.9
20260506163522 62 238 3.5 7.0 0.00 0.05 0.01 86 1021.9
20260506163037 62 188 0.9 4.3 0.00 0.05 0.01 87 1022.0
20260506162519 61 58 0.0 1.7 0.00 0.05 0.01 87 1021.9
20260506162019 61 355 0.0 3.5 0.00 0.05 0.01 89 1021.9
20260506161617 60 298 1.7 3.5 0.00 0.05 0.01 88 1021.9
20260506161015 60 213 0.0 1.7 0.00 0.05 0.01 90 1021.8
20260506160517 59 299 0.0 3.5 0.00 0.05 0.01 90 1021.9
20260506160013 59 299 0.0 5.2 0.00 0.05 0.01 90 1022.0
20260506155512 59 260 2.6 5.2 0.00 0.06 0.01 90 1022.0
20260506155010 58 283 0.0 2.6 0.00 0.06 0.01 91 1021.9
20260506154526 58 254 0.9 2.6 0.00 0.06 0.01 92 1021.9
20260506154008 57 288 0.0 2.6 0.00 0.06 0.01 92 1021.9
20260506153506 57 294 0.9 2.6 0.00 0.06 0.01 92 1021.9
20260506153006 57 285 0.9 2.6 0.00 0.06 0.01 92 1021.9
20260506152505 56 301 0.9 2.6 0.00 0.06 0.01 92 1021.8
20260506152009 56 292 0.9 2.6 0.00 0.06 0.01 92 1021.8
20260506151504 56 298 0.0 2.6 0.00 0.06 0.01 93 1021.8
20260506151004 56 260 0.9 2.6 0.00 0.06 0.01 93 1021.8
20260506150504 56 334 0.9 2.6 0.00 0.06 0.01 93 1021.8
20260506150006 56 298 0.9 2.6 0.00 0.06 0.01 94 1021.8
20260506145503 55 260 0.9 2.6 0.00 0.07 0.01 94 1021.8
20260506145001 55 279 0.0 1.7 0.00 0.07 0.01 94 1021.8
20260506144501 55 284 0.0 1.7 0.00 0.07 0.01 94 1021.8
20260506144100 55 284 0.0 1.7 0.00 0.07 0.01 94 1021.8
20260506143559 55 276 0.0 2.6 0.00 0.07 0.01 94 1021.6
20260506143058 55 280 0.0 2.6 0.00 0.07 0.01 94 1021.7
20260506142558 54 280 0.9 2.6 0.00 0.07 0.01 94 1021.6
20260506142057 54 265 0.0 2.6 0.00 0.07 0.01 94 1021.6
20260506141600 54 260 0.0 2.6 0.00 0.07 0.01 94 1021.6
20260506141057 54 267 0.0 1.7 0.00 0.07 0.01 94 1021.6
20260506140558 54 267 0.0 1.7 0.00 0.07 0.01 94 1021.5
20260506140057 54 263 0.0 1.7 0.00 0.07 0.01 94 1021.5
20260506135554 54 263 0.0 1.7 0.00 0.08 0.01 94 1021.4
20260506135054 54 263 0.0 0.0 0.00 0.08 0.01 94 1021.4
20260506134554 54 263 0.0 1.7 0.00 0.08 0.01 94 1021.4
20260506134054 54 263 0.9 1.7 0.00 0.08 0.01 94 1021.4
20260506133554 54 263 0.0 1.7 0.00 0.08 0.01 94 1021.4
20260506133054 54 263 0.0 0.0 0.00 0.08 0.01 94 1021.3
20260506132554 54 263 0.0 1.7 0.00 0.08 0.01 94 1021.4
20260506132053 54 263 0.0 1.7 0.00 0.08 0.01 94 1021.3
20260506131556 54 263 0.9 1.7 0.00 0.08 0.01 94 1021.2
20260506131052 54 263 0.0 0.0 0.00 0.08 0.01 94 1021.1
20260506130556 54 263 0.0 0.0 0.00 0.08 0.01 94 1021.1
20260506130053 54 263 0.0 0.9 0.00 0.08 0.01 94 1021.1
20260506125550 54 263 0.0 0.9 0.00 0.10 0.01 94 1021.2
20260506125053 54 263 0.0 1.7 0.00 0.10 0.01 93 1021.2
20260506124550 54 263 0.0 1.7 0.00 0.10 0.01 93 1021.1
20260506124049 54 263 0.0 1.7 0.00 0.10 0.01 93 1021.1
20260506123549 54 263 0.0 2.6 0.00 0.10 0.01 93 1021.1
20260506123052 54 263 0.9 1.7 0.00 0.10 0.01 93 1021.0
20260506122549 54 263 0.0 1.7 0.00 0.10 0.01 93 1021.0
20260506122049 54 263 0.0 1.7 0.00 0.10 0.01 93 1021.0
20260506121559 54 263 0.0 0.9 0.00 0.10 0.01 93 1021.0
20260506121047 54 263 0.0 1.7 0.00 0.10 0.01 93 1020.9
20260506120547 54 263 0.0 1.7 0.00 0.10 0.01 93 1020.8
20260506120046 54 261 0.0 1.7 0.00 0.10 0.01 93 1020.9
20260506115546 54 269 0.9 1.7 0.00 0.12 0.01 93 1020.8
20260506115045 54 273 0.0 2.6 0.00 0.12 0.01 93 1020.8
20260506114544 54 284 0.9 2.6 0.00 0.12 0.01 93 1020.8
20260506114044 54 285 0.0 2.6 0.00 0.12 0.01 93 1020.7
20260506113545 54 291 0.0 2.6 0.00 0.12 0.01 93 1020.7
20260506113044 54 290 0.0 2.6 0.00 0.12 0.01 93 1020.6
20260506112545 54 281 0.9 2.6 0.00 0.12 0.01 93 1020.5
20260506112043 54 257 0.0 1.7 0.00 0.12 0.01 93 1020.5
20260506111543 54 257 0.0 1.7 0.00 0.12 0.01 93 1020.5
20260506111042 54 252 0.0 2.6 0.00 0.12 0.01 93 1020.5
20260506110542 54 240 0.0 2.6 0.00 0.12 0.01 93 1020.5
20260506110043 54 278 0.0 1.7 0.00 0.12 0.01 93 1020.5
20260506105541 54 227 0.0 0.9 0.00 0.14 0.01 93 1020.5
20260506105043 54 227 0.0 0.9 0.00 0.14 0.01 93 1020.4
20260506104540 54 227 0.0 0.9 0.00 0.14 0.01 93 1020.4
20260506104040 54 227 0.0 0.9 0.00 0.14 0.01 93 1020.3
20260506103540 54 227 0.0 0.0 0.00 0.14 0.01 93 1020.4
20260506103040 54 227 0.0 0.0 0.00 0.14 0.01 93 1020.3
20260506102540 54 227 0.0 0.0 0.00 0.14 0.01 93 1020.4
20260506102044 54 227 0.0 0.0 0.00 0.14 0.01 93 1020.3
20260506101539 54 227 0.0 0.0 0.00 0.14 0.01 93 1020.2
20260506101039 54 227 0.0 0.0 0.00 0.14 0.01 93 1020.2
20260506100539 54 227 0.0 0.9 0.00 0.14 0.01 93 1020.3
20260506100039 54 227 0.0 1.7 0.00 0.14 0.01 93 1020.3
20260506095538 54 219 0.0 0.0 0.00 0.16 0.01 93 1020.2
20260506095038 54 286 0.0 0.0 0.00 0.16 0.01 93 1020.2
20260506094538 54 286 0.0 0.0 0.00 0.16 0.01 93 1020.2
20260506094037 54 286 0.0 0.0 0.00 0.16 0.01 93 1020.3
20260506093537 54 286 0.0 0.0 0.00 0.16 0.01 93 1020.3
20260506093037 54 286 0.0 0.0 0.00 0.16 0.01 93 1020.2
20260506092537 54 286 0.0 0.0 0.00 0.16 0.01 93 1020.3
20260506092037 54 286 0.0 0.0 0.00 0.16 0.01 93 1020.3
20260506091537 54 286 0.0 0.0 0.00 0.16 0.01 93 1020.3
20260506091039 54 286 0.0 0.0 0.00 0.16 0.01 93 1020.3
20260506090536 54 286 0.0 0.0 0.00 0.16 0.01 93 1020.3
20260506090035 54 286 0.0 0.0 0.00 0.16 0.01 93 1020.4
20260506085535 54 286 0.0 0.0 0.00 0.18 0.01 93 1020.4
20260506085035 54 286 0.0 0.0 0.00 0.18 0.01 93 1020.3
20260506084542 54 286 0.0 0.0 0.00 0.18 0.01 93 1020.3
20260506084035 54 286 0.0 0.0 0.00 0.18 0.01 93 1020.4
20260506083538 54 286 0.0 0.0 0.00 0.18 0.01 93 1020.4
20260506083035 54 286 0.0 0.0 0.00 0.18 0.01 92 1020.4
20260506082534 54 286 0.0 0.0 0.00 0.18 0.01 92 1020.4
20260506082033 54 286 0.0 0.0 0.00 0.18 0.01 92 1020.4
20260506081540 54 286 0.0 0.0 0.00 0.18 0.01 92 1020.4
20260506081033 54 279 0.0 0.0 0.00 0.18 0.01 92 1020.4
20260506080535 54 279 0.0 2.6 0.00 0.18 0.01 92 1020.4
20260506073029 54 284 0.0 0.0 0.01 0.19 0.01 92 1020.1
20260506072530 54 284 0.0 0.0 0.01 0.19 0.01 92 1019.9
20260506072029 54 284 0.0 0.0 0.01 0.19 0.01 92 1019.9
20260506071529 54 284 0.0 0.0 0.01 0.19 0.01 92 1019.8
20260506071027 54 284 0.0 0.9 0.01 0.19 0.01 92 1019.7
20260506070528 54 284 0.0 3.5 0.01 0.19 0.01 92 1019.7
20260506062023 55 303 0.0 3.5 0.00 0.20 0.18 92 1019.6
20260506061526 55 240 1.7 3.5 0.00 0.20 0.18 92 1019.5
20260506061026 55 219 0.9 2.6 0.00 0.20 0.18 92 1019.6
20260506060523 55 250 0.9 2.6 0.00 0.20 0.18 92 1019.6
20260506051018 55 226 0.0 1.7 0.00 0.21 0.18 91 1019.3
20260506050520 55 226 0.0 2.6 0.00 0.21 0.18 91 1019.3
20260506045016 55 236 0.9 3.5 0.01 0.24 0.18 91 1019.2
20260506044518 55 218 1.7 3.5 0.01 0.24 0.18 91 1019.1
20260506044015 55 240 0.9 3.5 0.01 0.24 0.18 91 1019.1
20260506043518 55 242 0.9 3.5 0.01 0.24 0.18 91 1019.0
20260506043014 55 269 0.0 0.0 0.01 0.24 0.18 91 1019.0
20260506042515 55 269 0.0 1.7 0.01 0.24 0.18 91 1018.9
20260506042013 55 269 0.0 3.5 0.01 0.24 0.18 91 1018.9
20260506041521 55 269 0.9 3.5 0.01 0.24 0.18 91 1018.8
20260506041011 55 286 0.0 2.6 0.01 0.24 0.18 91 1018.7
20260506040517 55 288 0.9 2.6 0.01 0.24 0.18 91 1018.7
20260506040011 55 241 0.9 2.6 0.01 0.24 0.18 91 1018.6
20260506035514 55 225 0.9 3.5 0.00 0.26 0.17 90 1018.5
20260506035011 55 250 1.7 3.5 0.00 0.26 0.17 90 1018.5
20260506034511 55 278 0.0 2.6 0.00 0.26 0.17 90 1018.5
20260506034013 55 290 0.9 3.5 0.00 0.26 0.17 91 1018.5
20260506033511 55 281 0.9 3.5 0.00 0.26 0.17 90 1018.4
20260506033009 55 292 0.0 2.6 0.00 0.26 0.17 90 1018.2
20260506032508 55 282 0.0 3.5 0.00 0.26 0.17 90 1018.1
20260506032008 55 276 1.7 3.5 0.00 0.26 0.17 90 1017.9
20260506031506 56 248 1.7 3.5 0.00 0.26 0.17 90 1017.8
20260506031006 56 248 0.0 4.3 0.00 0.26 0.17 90 1017.8
20260506030509 56 259 1.7 8.7 0.00 0.26 0.17 90 1017.5
20260506030005 56 248 1.7 8.7 0.00 0.26 0.17 89 1017.6
20260506025507 56 246 2.6 5.2 0.00 0.31 0.17 89 1017.6
20260506025004 56 261 0.9 5.2 0.00 0.31 0.17 89 1017.7
20260506024504 56 268 3.5 7.8 0.00 0.31 0.17 88 1017.6
20260506024106 57 269 2.6 9.6 0.00 0.31 0.17 88 1017.5
20260506023502 57 255 4.3 9.6 0.00 0.31 0.17 87 1017.4
20260506023002 57 198 5.2 8.7 0.00 0.31 0.17 87 1017.4
20260506022502 57 207 3.5 9.6 0.00 0.31 0.17 87 1017.5
20260506022004 57 254 6.1 10.4 0.00 0.31 0.17 87 1017.4
20260506021501 57 272 4.3 10.4 0.00 0.31 0.17 87 1017.4
20260506021001 58 227 6.1 10.4 0.00 0.31 0.17 87 1017.3
20260506020600 57 188 4.3 11.3 0.00 0.31 0.17 87 1017.2
20260506020100 57 267 7.0 14.8 0.00 0.31 0.17 86 1017.2
20260506015559 58 231 7.8 13.9 0.00 0.36 0.17 86 1017.1
20260506015059 58 269 5.2 13.9 0.00 0.36 0.17 85 1017.1
20260506014559 58 248 7.0 13.9 0.00 0.36 0.17 85 1017.0
20260506014101 58 225 5.2 13.0 0.00 0.36 0.17 85 1017.0
20260506013558 58 224 5.2 11.3 0.00 0.36 0.17 84 1017.0
20260506013104 59 283 6.1 11.3 0.00 0.36 0.17 84 1016.9
20260506012600 59 248 5.2 10.4 0.00 0.36 0.17 84 1016.9
20260506012058 59 214 6.1 10.4 0.00 0.36 0.17 84 1016.9
20260506011605 59 209 3.5 10.4 0.00 0.36 0.17 83 1016.9
20260506011056 59 252 7.0 10.4 0.00 0.36 0.17 82 1016.9
20260506010557 60 157 5.2 12.2 0.00 0.36 0.17 84 1016.9
20260506010057 60 225 5.2 12.2 0.00 0.36 0.17 83 1016.8
20260506005555 60 220 7.0 10.4 0.00 0.38 0.17 83 1016.9
20260506005056 60 243 6.1 11.3 0.00 0.38 0.17 83 1016.9
20260506004559 60 209 4.3 10.4 0.00 0.38 0.17 82 1016.9
20260506004055 61 294 2.6 13.0 0.00 0.38 0.17 83 1016.8
20260506003555 60 240 4.3 13.0 0.00 0.38 0.17 82 1016.7
20260506003054 61 239 6.1 13.9 0.00 0.38 0.17 81 1016.6
20260506002553 61 248 7.0 13.9 0.00 0.38 0.17 80 1016.8
20260506002053 62 255 5.2 12.2 0.00 0.38 0.17 82 1016.6
20260506001557 62 250 5.2 13.9 0.00 0.38 0.17 82 1016.6
20260506001155 62 289 7.0 13.9 0.00 0.38 0.17 81 1016.5
20260506000554 62 259 5.2 10.4 0.00 0.38 0.17 82 1016.5
20260506000059 62 213 6.1 12.2 0.00 0.38 0.17 83 1016.5
20260505235551 62 268 7.8 12.2 0.00 0.40 0.17 82 1016.5
20260505235052 61 244 5.2 9.6 0.00 0.40 0.17 83 1016.5
20260505234551 61 256 6.1 11.3 0.00 0.40 0.17 82 1016.6
20260505234052 62 236 3.5 11.3 0.00 0.40 0.17 83 1016.5
20260505233551 62 236 4.3 10.4 0.00 0.40 0.17 83 1016.6
20260505233054 62 246 3.5 11.3 0.00 0.40 0.17 84 1016.5
20260505232550 61 184 6.1 11.3 0.00 0.40 0.17 83 1016.5
20260505232054 61 232 6.1 10.4 0.00 0.40 0.17 83 1016.5
20260505231550 61 238 7.0 10.4 0.00 0.40 0.17 83 1016.5
20260505231051 62 217 7.0 12.2 0.00 0.40 0.17 83 1016.4
20260505230556 62 238 7.0 12.2 0.00 0.40 0.17 82 1016.5
20260505230113 62 271 4.3 11.3 0.01 0.40 0.17 83 1016.4
20260505225549 62 234 5.2 11.3 0.01 0.40 0.17 83 1016.4
20260505225051 62 213 3.5 10.4 0.01 0.40 0.17 84 1016.4
20260505224549 62 219 6.1 10.4 0.01 0.40 0.17 82 1016.5
20260505224049 62 211 5.2 9.6 0.01 0.40 0.17 82 1016.5
20260505223548 62 234 5.2 11.3 0.01 0.40 0.17 82 1016.5
20260505223048 63 223 5.2 13.0 0.01 0.40 0.17 82 1016.5
20260505222547 62 242 5.2 12.2 0.01 0.40 0.17 83 1016.5
20260505222050 62 192 4.3 10.4 0.01 0.40 0.17 82 1016.6
20260505221555 62 257 4.3 7.8 0.01 0.40 0.17 82 1016.6
20260505221047 63 248 5.2 9.6 0.01 0.40 0.17 81 1016.6
20260505220547 63 243 3.5 9.6 0.01 0.40 0.17 82 1016.6
20260505220054 63 296 3.5 9.6 0.00 0.39 0.16 81 1016.6
20260505215545 63 256 2.6 7.8 0.00 0.39 0.16 81 1016.7
20260505215045 63 259 3.5 8.7 0.00 0.39 0.16 82 1016.6
20260505214545 63 209 5.2 8.7 0.00 0.39 0.16 81 1016.6
20260505214044 63 281 2.6 8.7 0.00 0.39 0.16 83 1016.7
20260505213543 63 296 3.5 7.0 0.00 0.39 0.16 83 1016.8
20260505213042 63 269 3.5 7.8 0.00 0.39 0.16 83 1016.9
20260505212544 63 262 3.5 7.8 0.00 0.39 0.16 83 1016.8
20260505212041 63 200 2.6 7.0 0.00 0.39 0.16 84 1016.9
20260505211547 63 290 4.3 7.0 0.00 0.39 0.16 83 1017.1
20260505211040 63 218 2.6 7.0 0.00 0.39 0.16 84 1017.0
20260505210539 62 193 3.5 7.0 0.00 0.39 0.16 83 1017.0
20260505210038 62 269 3.5 7.8 0.00 0.39 0.16 84 1017.1
20260505205538 62 250 2.6 8.7 0.00 0.39 0.16 83 1017.0
20260505205038 62 230 4.3 8.7 0.00 0.39 0.16 83 1017.0
20260505204538 62 242 5.2 7.8 0.00 0.39 0.16 83 1017.0
20260505204036 62 197 2.6 7.0 0.00 0.39 0.16 85 1017.0
20260505203535 62 218 2.6 7.8 0.00 0.39 0.16 84 1016.9
20260505203035 62 214 4.3 7.8 0.00 0.39 0.16 84 1016.8
20260505202534 61 228 5.2 7.8 0.00 0.39 0.16 84 1017.0
20260505202034 61 223 4.3 7.8 0.00 0.39 0.16 84 1017.1
20260505201534 61 191 3.5 7.8 0.00 0.39 0.16 85 1017.0
20260505201035 61 280 2.6 6.1 0.00 0.39 0.16 85 1017.0
20260505200533 61 286 1.7 5.2 0.00 0.39 0.16 86 1017.1
20260505200039 61 269 1.7 6.1 0.00 0.39 0.16 86 1017.1
20260505195533 61 208 3.5 7.0 0.00 0.39 0.16 85 1017.1
20260505195031 60 246 2.6 7.0 0.00 0.39 0.16 85 1017.1
20260505194531 61 286 2.6 7.0 0.00 0.39 0.16 85 1017.0
20260505194031 60 275 2.6 7.0 0.00 0.39 0.16 85 1017.1
20260505193530 60 242 4.3 8.7 0.01 0.39 0.16 85 1017.1